sat.trackr.live / text

‹ back to catalog

STARLINK-31836

NORAD 59724 · 2024-088S

PAYLOAD ACTIVE UNKNOWN

§ Identity

Operator
Country
US
Launch date
2024-05-10
Launch site
AFWTR
Launch vehicle
Mass (kg)
RCS (m²)

Purposes: comms

External: N2YO · Heavens-Above · Gunter

§ Orbital elements

Epoch: 2026-09-21T10:36:43.732512Z

Period
94.01 min
Inclination
53.1622°
Eccentricity
0.0001234
Mean motion
15.31703958 rev/d
Perigee alt
469.9 km
Apogee alt
471.6 km
Semi-major
6,848.9 km
B*
2.4025e-5
RAAN
309.1793°
Arg perigee
95.1888°
Mean anomaly
264.9254°
Rev number
13,367

§ Raw data

STARLINK-318361 59724U 24088S   26264.44217283  .00000381  00000+0  24025-4 0  99982 59724  53.1622 309.1793 0001234  95.1888 264.9254 15.31703958133673

JSON: /api/v1/satellites/59724 · /tle

For live sub-satellite position, see the globe view (requires WebGL).

§ Visibility from observer

Set your observer location to see the next 7 days of passes ≥ 10°. The values pass through the URL so the page stays shareable.

No JS? Fill the form by hand. The geolocation button needs JavaScript.